Regional Weather Roundup
Issued by NWS

Home | Current Version | Previous Version | Text Only | Print | Product List | Glossary Off
Versions: 1 2 3 4 5 6 7 8 9 10 11 12 13 14 15 16 17 18 19 20 21 22 23 24 25 26 27 28 29 30 31 32 33 34 35 36 37 38 39 40 41 42 43 44 45 46 47 48 49 50

632
ASUS44 KLIX 230410
RWRLA
LOUISIANA WEATHER ROUNDUP
NATIONAL WEATHER SERVICE NEW ORLEANS LA
1000 PM CST MON DEC 22 2014

NOTE: "FAIR" INDICATES FEW OR NO CLOUDS BELOW 12,000 FEET WITH NO
      SIGNIFICANT WEATHER AND/OR OBSTRUCTIONS TO VISIBILITY.
      SKY/WX - SKY CONDITION AND SIGNIFICANT WEATHER.
      TMP - AIR TEMPERATURE.    DP   - DEWPOINT TEMPERATURE.
      RH  - RELATIVE HUMIDITY.  PRES - PRESSURE.
      HX  - HEAT INDEX.         WCI  - WIND CHILL INDEX.

*  THESE STATIONS ARE NOT NWS OR FAA STATIONS AND ARE NOT UNDER
   NWS QUALITY CONTROL.

LAZ040-048-061>063-065-066-069-230500-
SOUTHEAST LOUISIANA

CITY           SKY/WX    TMP DP  RH WIND       PRES   REMARKS
N.O. AUDUBON     N/A     67  67 100 MISG        N/A
N.O. INTL ARPT CLOUDY    70  66  87 S9        29.74S FOG
N.O. LAKEFRONT MOCLDY    70  66  87 S12       29.75R
N.O. DOWNTOWN* CLOUDY    70  64  83 S7        29.75S
SLIDELL        CLOUDY    68  66  93 S5        29.74S FOG
BATON ROUGE    CLOUDY    69  64  84 SW16G26   29.71R
BOOTHVILLE     PTCLDY    66  66 100 S6        29.77R FOG
BELLE CHASSE   MOCLDY    68  66  93 S9        29.74S FOG
BOGALUSA*        N/A     70  65  84 S10       29.75R
GALLIANO*      PTCLDY    66  65  96 MISG      29.75S FOG
NEW ROADS*     CLOUDY    67  65  91 S8        29.71R
GONZALES*      FAIR      67  67 100 S7        29.72S FOG
HAMMOND*       NOT AVBL
HOUMA*         MOCLDY    69  68  97 S7        29.74S FOG
PORT FOURCHON* CLEAR     68  66  94 S8G14     29.78S FOG

$$

LAZ041-044-053-054-230500-
SOUTHWEST LOUISIANA

CITY           SKY/WX    TMP DP  RH WIND       PRES   REMARKS
LAKE CHARLES   CLOUDY    64  63  96 SW9       29.69R
LAFAYETTE      CLOUDY    66  64  93 S8        29.70S
PATTERSON      PTCLDY    66  64  94 S6        29.73S
SALT POINT       N/A     69  65  86 S5        29.71S
NEW IBERIA     PTCLDY    66  65  96 S8        29.71S
CHENAULT AIRPK CLOUDY    65  63  94 SW8G20    29.69R

$$

LAZ027-028-230500-
CENTRAL LOUISIANA

CITY           SKY/WX    TMP DP  RH WIND       PRES   REMARKS
FORT POLK      PTCLDY    62  61  96 S3        29.67R
ALEXANDRIA INT PTCLDY    62  60  93 S6        29.66R
ALEXANDRIA     MOCLDY    62  60  93 SW3       29.68R

$$

LAZ001-002-230500-
NORTHWEST LOUISIANA

CITY           SKY/WX    TMP DP  RH WIND       PRES   REMARKS
SHREVEPORT     CLOUDY    56  53  90 W7        29.65R
BARKSDALE AFB  NOT AVBL
DTN SHREVEPORT CLOUDY    54  50  86 SW5       29.65R

$$

LAZ014-016-230500-
NORTHEAST LOUISIANA

CITY           SKY/WX    TMP DP  RH WIND       PRES   REMARKS
MONROE         CLOUDY    60  59  96 S5        29.67R
TALLULAH       CLOUDY    65  59  81 SW6       29.68R

$$




USA.gov is the U.S. government's official web portal to all federal, state and local government web resources and services.